This is the latest recevied weather packets stored in our database for station/object TULLARI. If no packets are shown the sender has not sent any weather packets the latest 10 day(s).
| Time | Temp. | Humidity | Pressure | Rain* | Wind** | Luminosity | Snow |
|---|---|---|---|---|---|---|---|
| 1777914440 | 5.56° C | 95% | 1003.2 hPa | - | - | - | - |
| 1777913240 | 5.56° C | 94% | 1003.3 hPa | - | - | - | - |
| 1777912040 | 5.56° C | 94% | 1003.4 hPa | - | - | - | - |
| 1777910840 | 5.56° C | 93% | 1003.2 hPa | - | - | - | - |
| 1777909639 | 5.56° C | 92% | 1003.3 hPa | - | - | - | - |
| 1777908440 | 6.11° C | 92% | 1003.1 hPa | - | - | - | - |
| 1777907239 | 6.67° C | 89% | 1003 hPa | - | - | - | - |
| 1777906040 | 7.78° C | 87% | 1003.1 hPa | - | - | - | - |
| 1777904840 | 7.22° C | 89% | 1003.1 hPa | - | - | - | - |
| 1777903639 | 6.67° C | 89% | 1003.2 hPa | - | - | - | - |
| 1777902439 | 7.22° C | 90% | 1003.1 hPa | - | - | - | - |
| 1777901239 | 7.78° C | 91% | 1003 hPa | - | - | - | - |
| 1777900038 | 7.22° C | 93% | 1003 hPa | - | - | - | - |
| 1777898839 | 7.22° C | 94% | 1003.1 hPa | - | - | - | - |
| 1777897639 | 7.22° C | 95% | 1002.9 hPa | - | - | - | - |
| 1777896439 | 6.11° C | 95% | 1003.1 hPa | - | - | - | - |
| 1777895239 | 6.11° C | 95% | 1003.1 hPa | - | - | - | - |
| 1777894038 | 6.67° C | 95% | 1002.9 hPa | - | - | - | - |
| 1777892840 | 6.11° C | 94% | 1003.1 hPa | - | - | - | - |
| 1777891638 | 5.56° C | 94% | 1003.3 hPa | - | - | - | - |
| 1777890439 | 5.56° C | 94% | 1003.4 hPa | - | - | - | - |
| 1777889238 | 5° C | 94% | 1003.6 hPa | - | - | - | - |
| 1777888038 | 5° C | 93% | 1003.8 hPa | - | - | - | - |
| 1777886839 | 5° C | 93% | 1004.1 hPa | - | - | - | - |
| 1777885638 | 5.56° C | 93% | 1004.3 hPa | - | - | - | - |
* Rain since midnight (hover to see other rain measurements)
** Current wind speed in m/s (hover to see current wind gust speed)